Flag for Germany Weather past 2 weeks in Bautzen, Saxony, Germany

Now
47 °F

Clear.


Feels Like: 46 °F
Forecast: 51 / 75 °F
Wind: 3 mph from Southwest

Location: Goerlitz

Current Time: Aug 28, 2014 at 5:28:15 AM

Latest Report: Aug 28, 2014 at 5:00 AM


Visibility: 31 mi

Pressure: 30.09 "Hg

Humidity: 90%

Dew point: 45 °F

Location of BautzenLocation

Historic Weather in Bautzen — Graph

°F

Bautzen temperature yesterday

Maximum temperature yesterday: 65 °F (at 6:00 PM)
Minimum temperature yesterday: 49 °F (at 5:00 AM)
Average temperature yesterday: 56 °F

Past Weeks' High & Low Weather Summary

 TemperatureHumidityPressure
High70 °F (Aug 13, 3:00 PM)99% (Aug 27, 5:00 AM)30.08 "Hg (Aug 27, 5:00 AM)
Low46 °F (Aug 25, 6:00 AM)41% (Aug 25, 3:00 PM)29.63 "Hg (Aug 14, 12:00 AM)
Average58 °F76%29.91 "Hg
* Reported Aug 13 4:00 AM — Aug 28 4:00 AM, Bautzen, Weather by CustomWeather, © 2014

Note: Actual official high and low records may vary slightly from our data, if they occured in-between our weather recording intervals... More about our weather records

Advertising

Bautzen weather history for previous 24 hours

 ConditionsComfort  
Time TempWeatherWind HumidityBarometerVisibility
4:00 AM
Aug 28
49 °FClear.3 mph89%30.07 "Hg31 mi
3:00 AM49 °FClear.3 mph88%30.07 "Hg31 mi
2:00 AM51 °FClear.3 mph86%30.07 "Hg31 mi
1:00 AM50 °FClear.2 mph86%30.07 "Hg31 mi
12:00 AM52 °FClear.2 mph84%30.06 "Hg31 mi
11:00 PM
Aug 27
54 °FClear.2 mph82%30.06 "Hg31 mi
10:00 PM55 °FPassing clouds.2 mph83%30.04 "Hg31 mi
9:00 PM55 °FOvercast.1 mph91%30.03 "Hg31 mi
8:00 PM60 °FPassing clouds.1 mph68%30.00 "Hg43 mi
7:00 PM64 °FPartly sunny.2 mph58%29.98 "Hg43 mi
6:00 PM65 °FPartly sunny.5 mph52%29.97 "Hg40 mi
5:00 PM65 °FPartly sunny.3 mph57%29.96 "Hg37 mi
4:00 PM64 °FPartly sunny.3 mph56%29.96 "Hg37 mi
3:00 PM62 °FPartly sunny.5 mph55%29.95 "Hg34 mi
2:00 PM63 °FOvercast.5 mph57%29.95 "Hg28 mi
1:00 PM61 °FPartly sunny.3 mph62%29.95 "Hg22 mi
12:00 PM61 °FPartly sunny.3 mph67%29.94 "Hg14 mi
11:00 AM58 °FPartly sunny.2 mph82%29.93 "Hg11 mi
10:00 AM55 °FLow clouds.2 mph95%29.92 "Hg6 mi
9:00 AM51 °FFog.1 mph99%29.91 "Hg1 mi
8:00 AM50 °FFog.1 mph99%29.89 "Hg0 mi
7:00 AM50 °FFog.1 mph99%29.87 "Hg0 mi
6:00 AM51 °FFog.1 mph99%29.84 "Hg0 mi
5:00 AM49 °FFog.1 mph99%29.84 "Hg0 mi
Weather by CustomWeather, © 2014

See weather overviewHow to use our weather pages